Time,TemperatureF,DewpointF,PressureIn,WindDirection,WindDirectionDegrees,WindSpeedMPH,WindSpeedGustMPH,Humidity,HourlyPrecipIn,Conditions,Clouds,dailyrainin,SoftwareType,DateUTC
2013-02-12 00:00:00,34.3,26.4,29.94,West,276,4.0,21.0,72,0.00,,OVC OVC///CB,0.00,WUHU216DAVISVP2,2013-02-12 05:00:00,
2013-02-12 00:05:00,34.3,26.4,29.94,West,279,7.0,16.0,72,0.00,,OVC OVC///CB,0.00,WUHU216DAVISVP2,2013-02-12 05:05:00,
2013-02-12 00:10:00,34.2,26.3,29.95,WNW,290,9.0,16.0,72,0.00,,OVC OVC///CB,0.00,WUHU216DAVISVP2,2013-02-12 05:10:00,
2013-02-12 00:15:00,34.0,26.4,29.95,West,281,10.0,17.0,73,0.00,,OVC OVC///CB,0.00,WUHU216DAVISVP2,2013-02-12 05:15:00,
2013-02-12 00:20:00,33.9,26.7,29.95,WNW,283,7.0,17.0,74,0.00,,OVC OVC///CB,0.00,WUHU216DAVISVP2,2013-02-12 05:20:00,
2013-02-12 00:25:00,33.8,26.6,29.95,West,264,4.0,17.0,74,0.00,,OVC OVC///CB,0.00,WUHU216DAVISVP2,2013-02-12 05:25:00,
2013-02-12 00:30:00,33.7,26.8,29.95,WNW,295,2.0,17.0,75,0.00,,OVC OVC///CB,0.00,WUHU216DAVISVP2,2013-02-12 05:30:00,
2013-02-12 00:35:00,33.6,26.7,29.96,West,276,4.0,13.0,75,0.00,,OVC OVC///CB,0.00,WUHU216DAVISVP2,2013-02-12 05:35:00,
2013-02-12 00:40:00,33.5,26.6,29.96,West,278,6.0,14.0,75,0.00,,OVC OVC///CB,0.00,WUHU216DAVISVP2,2013-02-12 05:40:00,
2013-02-12 00:45:00,33.4,26.5,29.96,WSW,247,3.0,16.0,75,0.00,,OVC OVC///CB,0.00,WUHU216DAVISVP2,2013-02-12 05:45:00,
2013-02-12 00:50:00,33.2,26.6,29.97,WNW,293,7.0,16.0,76,0.00,,OVC OVC///CB,0.00,WUHU216DAVISVP2,2013-02-12 05:50:00,
2013-02-12 00:55:00,33.1,26.5,29.97,WNW,289,3.0,16.0,76,0.00,,OVC OVC///CB,0.00,WUHU216DAVISVP2,2013-02-12 05:55:00,
2013-02-12 01:00:00,32.9,26.6,29.97,West,268,2.0,16.0,77,0.00,,OVC OVC///CB,0.00,WUHU216DAVISVP2,2013-02-12 06:00:00,
2013-02-12 01:05:00,32.9,26.6,29.97,WNW,295,3.0,12.0,77,0.00,,OVC OVC///CB,0.00,WUHU216DAVISVP2,2013-02-12 06:05:00,
2013-02-12 01:10:00,32.8,26.8,29.97,WNW,298,3.0,12.0,78,0.00,,OVC OVC///CB,0.00,WUHU216DAVISVP2,2013-02-12 06:10:00,
2013-02-12 01:15:00,32.8,26.8,29.97,WSW,240,6.0,10.0,78,0.00,,OVC OVC///CB,0.00,WUHU216DAVISVP2,2013-02-12 06:15:00,
2013-02-12 01:20:00,32.8,26.8,29.97,SW,221,7.0,10.0,78,0.00,,OVC OVC///CB,0.00,WUHU216DAVISVP2,2013-02-12 06:20:00,
2013-02-12 01:25:00,32.8,26.8,29.97,NNW,328,6.0,14.0,78,0.00,,OVC OVC///CB,0.00,WUHU216DAVISVP2,2013-02-12 06:25:00,
2013-02-12 01:30:00,32.8,26.5,29.98,WSW,258,4.0,14.0,77,0.00,,OVC OVC///CB,0.00,WUHU216DAVISVP2,2013-02-12 06:30:00,
2013-02-12 01:35:00,32.8,26.5,29.98,NW,315,2.0,16.0,77,0.00,,OVC OVC///CB,0.00,WUHU216DAVISVP2,2013-02-12 06:35:00,
2013-02-12 01:40:00,32.7,26.7,29.98,West,278,2.0,16.0,78,0.00,,OVC OVC///CB,0.00,WUHU216DAVISVP2,2013-02-12 06:40:00,
2013-02-12 01:45:00,32.6,26.3,29.98,West,276,3.0,16.0,77,0.00,,OVC OVC///CB,0.00,WUHU216DAVISVP2,2013-02-12 06:45:00,
2013-02-12 01:50:00,32.5,25.9,29.98,West,276,8.0,14.0,76,0.00,,OVC OVC///CB,0.00,WUHU216DAVISVP2,2013-02-12 06:50:00,
2013-02-12 01:55:00,32.4,25.5,29.99,West,271,12.0,21.0,75,0.00,,OVC OVC///CB,0.00,WUHU216DAVISVP2,2013-02-12 06:55:00,
2013-02-12 02:00:00,32.3,25.4,29.99,WNW,287,13.0,21.0,75,0.00,,OVC OVC///CB,0.00,WUHU216DAVISVP2,2013-02-12 07:00:00,
2013-02-12 02:05:00,32.3,25.1,29.99,WNW,298,6.0,21.0,74,0.00,,OVC OVC///CB,0.00,WUHU216DAVISVP2,2013-02-12 07:05:00,
2013-02-12 02:10:00,32.2,25.0,29.99,NW,322,6.0,21.0,74,0.00,,OVC OVC///CB,0.00,WUHU216DAVISVP2,2013-02-12 07:10:00,
2013-02-12 02:15:00,32.1,24.9,29.99,WSW,256,11.0,15.0,74,0.00,,OVC OVC///CB,0.00,WUHU216DAVISVP2,2013-02-12 07:15:00,
2013-02-12 02:20:00,32.1,25.2,29.99,WNW,298,6.0,16.0,75,0.00,,OVC OVC///CB,0.00,WUHU216DAVISVP2,2013-02-12 07:20:00,
2013-02-12 02:25:00,32.1,25.2,30.00,West,264,4.0,16.0,75,0.00,,OVC OVC///CB,0.00,WUHU216DAVISVP2,2013-02-12 07:25:00,
2013-02-12 02:30:00,32.0,25.1,30.00,WNW,288,4.0,16.0,75,0.00,,OVC OVC///CB,0.00,WUHU216DAVISVP2,2013-02-12 07:30:00,
2013-02-12 02:35:00,31.9,25.0,30.00,West,264,7.0,16.0,75,0.00,,OVC OVC///CB,0.00,WUHU216DAVISVP2,2013-02-12 07:35:00,
2013-02-12 02:40:00,31.9,25.4,30.00,West,278,4.0,16.0,76,0.00,,OVC OVC///CB,0.00,WUHU216DAVISVP2,2013-02-12 07:40:00,
2013-02-12 02:45:00,31.9,25.4,30.00,WNW,295,5.0,16.0,76,0.00,,OVC OVC///CB,0.00,WUHU216DAVISVP2,2013-02-12 07:45:00,
2013-02-12 02:50:00,31.8,25.3,30.00,West,262,3.0,14.0,76,0.00,,OVC OVC///CB,0.00,WUHU216DAVISVP2,2013-02-12 07:50:00,
2013-02-12 02:55:00,31.8,25.3,30.00,WSW,248,4.0,14.0,76,0.00,,OVC OVC///CB,0.00,WUHU216DAVISVP2,2013-02-12 07:55:00,
2013-02-12 03:00:00,31.8,25.3,30.00,WSW,256,4.0,14.0,76,0.00,,OVC OVC///CB,0.00,WUHU216DAVISVP2,2013-02-12 08:00:00,
2013-02-12 03:05:00,31.8,25.3,30.00,WNW,288,5.0,9.0,76,0.00,,OVC OVC///CB,0.00,WUHU216DAVISVP2,2013-02-12 08:05:00,
2013-02-12 03:10:00,31.8,25.3,30.00,WSW,252,6.0,12.0,76,0.00,,OVC OVC///CB,0.00,WUHU216DAVISVP2,2013-02-12 08:10:00,
2013-02-12 03:15:00,31.7,25.2,30.00,West,268,6.0,12.0,76,0.00,,OVC OVC///CB,0.00,WUHU216DAVISVP2,2013-02-12 08:15:00,
2013-02-12 03:20:00,31.7,25.2,30.00,WNW,288,4.0,12.0,76,0.00,,OVC OVC///CB,0.00,WUHU216DAVISVP2,2013-02-12 08:20:00,
2013-02-12 03:25:00,31.7,25.2,30.00,NW,311,3.0,17.0,76,0.00,,OVC OVC///CB,0.00,WUHU216DAVISVP2,2013-02-12 08:25:00,
2013-02-12 03:30:00,31.6,25.1,30.00,WSW,252,4.0,17.0,76,0.00,,OVC OVC///CB,0.00,WUHU216DAVISVP2,2013-02-12 08:30:00,
2013-02-12 03:35:00,31.6,25.1,30.00,West,276,9.0,17.0,76,0.00,,OVC OVC///CB,0.00,WUHU216DAVISVP2,2013-02-12 08:35:00,
2013-02-12 03:40:00,31.6,25.4,30.00,West,266,5.0,17.0,77,0.00,,OVC OVC///CB,0.00,WUHU216DAVISVP2,2013-02-12 08:40:00,
2013-02-12 03:45:00,31.6,25.4,30.00,WNW,290,5.0,15.0,77,0.00,,OVC OVC///CB,0.00,WUHU216DAVISVP2,2013-02-12 08:45:00,
2013-02-12 03:50:00,31.6,25.4,30.01,West,274,8.0,15.0,77,0.00,,OVC OVC///CB,0.00,WUHU216DAVISVP2,2013-02-12 08:50:00,
2013-02-12 03:55:00,31.5,25.3,30.01,WSW,249,11.0,15.0,77,0.00,,OVC OVC///CB,0.00,WUHU216DAVISVP2,2013-02-12 08:55:00,
2013-02-12 04:00:00,31.5,25.3,30.01,NW,314,5.0,15.0,77,0.00,,OVC OVC///CB,0.00,WUHU216DAVISVP2,2013-02-12 09:00:00,
2013-02-12 04:05:00,31.4,24.9,30.01,West,278,6.0,19.0,76,0.00,,OVC OVC///CB,0.00,WUHU216DAVISVP2,2013-02-12 09:05:00,
2013-02-12 04:10:00,31.4,24.9,30.01,WSW,256,6.0,19.0,76,0.00,,OVC OVC///CB,0.00,WUHU216DAVISVP2,2013-02-12 09:10:00,
2013-02-12 04:15:00,31.3,24.8,30.01,WNW,290,16.0,19.0,76,0.00,,OVC OVC///CB,0.00,WUHU216DAVISVP2,2013-02-12 09:15:00,
2013-02-12 04:20:00,31.2,24.7,30.01,WNW,296,4.0,19.0,76,0.00,,OVC OVC///CB,0.00,WUHU216DAVISVP2,2013-02-12 09:20:00,
2013-02-12 04:25:00,31.2,24.7,30.01,NW,309,2.0,19.0,76,0.00,,OVC OVC///CB,0.00,WUHU216DAVISVP2,2013-02-12 09:25:00,
2013-02-12 04:30:00,31.1,24.6,30.01,WSW,245,3.0,19.0,76,0.00,,OVC OVC///CB,0.00,WUHU216DAVISVP2,2013-02-12 09:30:00,
2013-02-12 04:35:00,31.2,24.4,30.01,NW,309,7.0,15.0,75,0.00,,OVC OVC///CB,0.00,WUHU216DAVISVP2,2013-02-12 09:35:00,
2013-02-12 04:40:00,31.1,24.6,30.01,SW,231,4.0,15.0,76,0.00,,OVC OVC///CB,0.00,WUHU216DAVISVP2,2013-02-12 09:40:00,
2013-02-12 04:45:00,31.1,24.6,30.01,WNW,293,3.0,15.0,76,0.00,,OVC OVC///CB,0.00,WUHU216DAVISVP2,2013-02-12 09:45:00,
2013-02-12 04:50:00,31.1,24.6,30.01,WSW,239,10.0,15.0,76,0.00,,OVC OVC///CB,0.00,WUHU216DAVISVP2,2013-02-12 09:50:00,
2013-02-12 04:55:00,31.0,24.8,30.02,West,259,8.0,13.0,77,0.00,,OVC OVC///CB,0.00,WUHU216DAVISVP2,2013-02-12 09:55:00,
2013-02-12 05:00:00,31.0,24.8,30.02,WSW,249,6.0,13.0,77,0.00,,OVC OVC///CB,0.00,WUHU216DAVISVP2,2013-02-12 10:00:00,
2013-02-12 05:05:00,31.0,24.8,30.02,West,278,2.0,13.0,77,0.00,,OVC OVC///CB,0.00,WUHU216DAVISVP2,2013-02-12 10:05:00,
2013-02-12 05:10:00,31.0,24.8,30.02,West,267,3.0,12.0,77,0.00,,OVC OVC///CB,0.00,WUHU216DAVISVP2,2013-02-12 10:10:00,
2013-02-12 05:15:00,31.0,25.1,30.02,WNW,283,2.0,12.0,78,0.00,,OVC OVC///CB,0.00,WUHU216DAVISVP2,2013-02-12 10:15:00,
2013-02-12 05:20:00,30.9,25.0,30.02,West,271,3.0,12.0,78,0.00,,OVC OVC///CB,0.00,WUHU216DAVISVP2,2013-02-12 10:20:00,
2013-02-12 05:25:00,30.9,25.0,30.02,WSW,257,7.0,12.0,78,0.00,,OVC OVC///CB,0.00,WUHU216DAVISVP2,2013-02-12 10:25:00,
2013-02-12 05:30:00,30.9,25.0,30.03,WNW,285,6.0,11.0,78,0.00,,OVC OVC///CB,0.00,WUHU216DAVISVP2,2013-02-12 10:30:00,
2013-02-12 05:35:00,30.9,25.0,30.02,West,281,5.0,11.0,78,0.00,,OVC OVC///CB,0.00,WUHU216DAVISVP2,2013-02-12 10:35:00,
2013-02-12 05:40:00,30.9,25.0,30.03,WNW,283,1.0,13.0,78,0.00,,OVC OVC///CB,0.00,WUHU216DAVISVP2,2013-02-12 10:40:00,
2013-02-12 05:45:00,30.9,25.0,30.03,WSW,257,4.0,13.0,78,0.00,,OVC OVC///CB,0.00,WUHU216DAVISVP2,2013-02-12 10:45:00,
2013-02-12 05:50:00,30.9,25.0,30.03,WSW,248,2.0,13.0,78,0.00,,OVC OVC///CB,0.00,WUHU216DAVISVP2,2013-02-12 10:50:00,
2013-02-12 05:55:00,30.9,25.0,30.03,WNW,300,8.0,13.0,78,0.00,,OVC OVC///CB,0.00,WUHU216DAVISVP2,2013-02-12 10:55:00,
2013-02-12 06:00:00,30.9,25.0,30.04,WNW,295,5.0,13.0,78,0.00,,OVC OVC///CB,0.00,WUHU216DAVISVP2,2013-02-12 11:00:00,
2013-02-12 06:05:00,30.9,25.3,30.04,WSW,255,3.0,13.0,79,0.00,,OVC OVC///CB,0.00,WUHU216DAVISVP2,2013-02-12 11:05:00,
2013-02-12 06:10:00,30.9,25.3,30.04,West,262,2.0,13.0,79,0.00,,OVC OVC///CB,0.00,WUHU216DAVISVP2,2013-02-12 11:10:00,
2013-02-12 06:15:00,30.8,24.6,30.04,WSW,254,8.0,17.0,77,0.00,,OVC OVC///CB,0.00,WUHU216DAVISVP2,2013-02-12 11:15:00,
2013-02-12 06:20:00,30.7,24.5,30.04,NW,305,6.0,17.0,77,0.00,,OVC OVC///CB,0.00,WUHU216DAVISVP2,2013-02-12 11:20:00,
2013-02-12 06:25:00,30.6,24.4,30.04,WNW,288,2.0,17.0,77,0.00,,OVC OVC///CB,0.00,WUHU216DAVISVP2,2013-02-12 11:25:00,
2013-02-12 06:30:00,30.6,24.4,30.04,WNW,298,6.0,17.0,77,0.00,,OVC OVC///CB,0.00,WUHU216DAVISVP2,2013-02-12 11:30:00,
2013-02-12 06:35:00,30.6,24.4,30.05,West,276,11.0,16.0,77,0.00,,OVC OVC///CB,0.00,WUHU216DAVISVP2,2013-02-12 11:35:00,
2013-02-12 06:40:00,30.5,24.3,30.05,SW,232,5.0,16.0,77,0.00,,OVC OVC///CB,0.00,WUHU216DAVISVP2,2013-02-12 11:40:00,
2013-02-12 06:45:00,30.5,24.3,30.05,WSW,253,9.0,17.0,77,0.00,,OVC OVC///CB,0.00,WUHU216DAVISVP2,2013-02-12 11:45:00,
2013-02-12 06:50:00,30.5,24.3,30.05,West,278,5.0,17.0,77,0.00,,OVC OVC///CB,0.00,WUHU216DAVISVP2,2013-02-12 11:50:00,
2013-02-12 06:55:00,30.4,24.2,30.05,West,279,9.0,17.0,77,0.00,,OVC OVC///CB,0.00,WUHU216DAVISVP2,2013-02-12 11:55:00,
2013-02-12 07:00:00,30.4,24.2,30.06,WSW,242,9.0,17.0,77,0.00,,OVC OVC///CB,0.00,WUHU216DAVISVP2,2013-02-12 12:00:00,
2013-02-12 07:05:00,30.4,24.5,30.06,West,276,5.0,15.0,78,0.00,,OVC OVC///CB,0.00,WUHU216DAVISVP2,2013-02-12 12:05:00,
2013-02-12 07:10:00,30.4,24.5,30.06,South,186,2.0,15.0,78,0.00,,OVC OVC///CB,0.00,WUHU216DAVISVP2,2013-02-12 12:10:00,
2013-02-12 07:15:00,30.4,24.5,30.06,West,262,7.0,15.0,78,0.00,,OVC OVC///CB,0.00,WUHU216DAVISVP2,2013-02-12 12:15:00,
2013-02-12 07:20:00,30.4,24.5,30.06,WSW,255,4.0,14.0,78,0.00,,OVC OVC///CB,0.00,WUHU216DAVISVP2,2013-02-12 12:20:00,
2013-02-12 07:25:00,30.3,24.4,30.06,SSW,207,6.0,14.0,78,0.00,,OVC OVC///CB,0.00,WUHU216DAVISVP2,2013-02-12 12:25:00,
2013-02-12 07:30:00,30.3,24.4,30.06,West,276,7.0,14.0,78,0.00,,OVC OVC///CB,0.00,WUHU216DAVISVP2,2013-02-12 12:30:00,
2013-02-12 07:35:00,30.3,24.4,30.07,WNW,301,4.0,13.0,78,0.00,,OVC OVC///CB,0.00,WUHU216DAVISVP2,2013-02-12 12:35:00,
2013-02-12 07:40:00,30.3,24.4,30.07,West,269,12.0,16.0,78,0.00,,OVC OVC///CB,0.00,WUHU216DAVISVP2,2013-02-12 12:40:00,
2013-02-12 07:45:00,30.3,24.4,30.07,WNW,293,9.0,16.0,78,0.00,,OVC OVC///CB,0.00,WUHU216DAVISVP2,2013-02-12 12:45:00,
2013-02-12 07:50:00,30.3,24.1,30.07,West,273,4.0,16.0,77,0.00,,OVC OVC///CB,0.00,WUHU216DAVISVP2,2013-02-12 12:50:00,
2013-02-12 07:55:00,30.4,24.5,30.07,WNW,290,4.0,16.0,78,0.00,,OVC OVC///CB,0.00,WUHU216DAVISVP2,2013-02-12 12:55:00,
2013-02-12 08:00:00,30.3,24.4,30.08,WSW,255,4.0,16.0,78,0.00,,OVC OVC///CB,0.00,WUHU216DAVISVP2,2013-02-12 13:00:00,
2013-02-12 08:05:00,30.4,24.5,30.08,West,276,7.0,13.0,78,0.00,,OVC OVC///CB,0.00,WUHU216DAVISVP2,2013-02-12 13:05:00,
2013-02-12 08:10:00,30.3,24.4,30.08,WSW,249,7.0,15.0,78,0.00,,OVC OVC///CB,0.00,WUHU216DAVISVP2,2013-02-12 13:10:00,
2013-02-12 08:15:00,30.3,24.4,30.08,WNW,284,10.0,15.0,78,0.00,,OVC OVC///CB,0.00,WUHU216DAVISVP2,2013-02-12 13:15:00,
2013-02-12 08:20:00,30.4,24.5,30.08,WSW,249,9.0,15.0,78,0.00,,OVC OVC///CB,0.00,WUHU216DAVISVP2,2013-02-12 13:20:00,
2013-02-12 08:25:00,30.4,24.5,30.08,NW,308,5.0,15.0,78,0.00,,OVC OVC///CB,0.00,WUHU216DAVISVP2,2013-02-12 13:25:00,
2013-02-12 08:30:00,30.4,24.5,30.09,NW,318,8.0,13.0,78,0.00,,OVC OVC///CB,0.00,WUHU216DAVISVP2,2013-02-12 13:30:00,
2013-02-12 08:35:00,30.4,24.5,30.09,West,276,6.0,15.0,78,0.00,,OVC OVC///CB,0.00,WUHU216DAVISVP2,2013-02-12 13:35:00,
2013-02-12 08:40:00,30.4,24.2,30.09,NW,316,8.0,15.0,77,0.00,,OVC OVC///CB,0.00,WUHU216DAVISVP2,2013-02-12 13:40:00,
2013-02-12 08:45:00,30.4,24.5,30.09,WSW,238,5.0,15.0,78,0.00,,OVC OVC///CB,0.00,WUHU216DAVISVP2,2013-02-12 13:45:00,
2013-02-12 08:50:00,30.4,24.2,30.09,WNW,298,4.0,15.0,77,0.00,,OVC OVC///CB,0.00,WUHU216DAVISVP2,2013-02-12 13:50:00,
2013-02-12 08:55:00,30.5,24.3,30.09,WNW,288,10.0,14.0,77,0.00,,OVC OVC///CB,0.00,WUHU216DAVISVP2,2013-02-12 13:55:00,
2013-02-12 09:00:00,30.5,24.3,30.09,West,267,4.0,11.0,77,0.00,,OVC OVC///CB,0.00,WUHU216DAVISVP2,2013-02-12 14:00:00,
2013-02-12 09:05:00,30.5,24.3,30.09,West,268,2.0,11.0,77,0.00,,OVC OVC///CB,0.00,WUHU216DAVISVP2,2013-02-12 14:05:00,
2013-02-12 09:10:00,30.5,24.3,30.09,WNW,301,3.0,12.0,77,0.00,,OVC OVC///CB,0.00,WUHU216DAVISVP2,2013-02-12 14:10:00,
2013-02-12 09:15:00,30.4,24.2,30.09,NW,304,3.0,12.0,77,0.00,,OVC OVC///CB,0.00,WUHU216DAVISVP2,2013-02-12 14:15:00,
2013-02-12 09:20:00,30.4,24.2,30.09,WNW,290,4.0,12.0,77,0.00,,OVC OVC///CB,0.00,WUHU216DAVISVP2,2013-02-12 14:20:00,
2013-02-12 09:25:00,30.4,24.5,30.09,NW,314,1.0,12.0,78,0.00,,OVC OVC///CB,0.00,WUHU216DAVISVP2,2013-02-12 14:25:00,
2013-02-12 09:30:00,30.5,24.6,30.10,WNW,289,3.0,10.0,78,0.00,,OVC OVC///CB,0.00,WUHU216DAVISVP2,2013-02-12 14:30:00,
2013-02-12 09:35:00,30.5,24.9,30.10,West,271,3.0,10.0,79,0.00,,OVC OVC///CB,0.00,WUHU216DAVISVP2,2013-02-12 14:35:00,
2013-02-12 09:40:00,30.6,25.0,30.10,NW,304,5.0,10.0,79,0.00,,OVC OVC///CB,0.00,WUHU216DAVISVP2,2013-02-12 14:40:00,
2013-02-12 09:45:00,30.6,25.0,30.10,WNW,293,2.0,10.0,79,0.00,,OVC OVC///CB,0.00,WUHU216DAVISVP2,2013-02-12 14:45:00,
2013-02-12 09:50:00,30.7,25.1,30.10,West,278,2.0,10.0,79,0.00,,OVC OVC///CB,0.00,WUHU216DAVISVP2,2013-02-12 14:50:00,
2013-02-12 09:55:00,30.8,25.2,30.11,West,264,3.0,10.0,79,0.00,,OVC OVC///CB,0.00,WUHU216DAVISVP2,2013-02-12 14:55:00,
2013-02-12 10:00:00,30.8,25.2,30.10,West,278,2.0,9.0,79,0.00,,OVC OVC///CB,0.00,WUHU216DAVISVP2,2013-02-12 15:00:00,
2013-02-12 10:05:00,30.8,25.5,30.10,WNW,289,3.0,9.0,80,0.00,,OVC OVC///CB,0.00,WUHU216DAVISVP2,2013-02-12 15:05:00,
2013-02-12 10:10:00,30.8,25.5,30.10,West,262,4.0,9.0,80,0.00,,OVC OVC///CB,0.00,WUHU216DAVISVP2,2013-02-12 15:10:00,
2013-02-12 10:15:00,30.8,25.5,30.10,WSW,245,1.0,9.0,80,0.00,,OVC OVC///CB,0.00,WUHU216DAVISVP2,2013-02-12 15:15:00,
2013-02-12 10:20:00,30.8,25.5,30.10,West,271,0.0,9.0,80,0.00,,OVC OVC///CB,0.00,WUHU216DAVISVP2,2013-02-12 15:20:00,
2013-02-12 10:25:00,30.9,25.9,30.10,WSW,245,1.0,11.0,81,0.00,,OVC OVC///CB,0.00,WUHU216DAVISVP2,2013-02-12 15:25:00,
2013-02-12 10:30:00,31.0,26.0,30.11,SW,236,5.0,11.0,81,0.00,,OVC OVC///CB,0.00,WUHU216DAVISVP2,2013-02-12 15:30:00,
2013-02-12 10:35:00,31.0,25.7,30.10,WNW,301,5.0,11.0,80,0.00,,OVC OVC///CB,0.00,WUHU216DAVISVP2,2013-02-12 15:35:00,
2013-02-12 10:40:00,31.0,25.7,30.10,SW,226,3.0,13.0,80,0.00,,OVC OVC///CB,0.00,WUHU216DAVISVP2,2013-02-12 15:40:00,
2013-02-12 10:45:00,31.0,25.4,30.10,West,278,6.0,13.0,79,0.00,,OVC OVC///CB,0.00,WUHU216DAVISVP2,2013-02-12 15:45:00,
2013-02-12 10:50:00,31.1,25.5,30.10,West,263,6.0,13.0,79,0.00,,OVC OVC///CB,0.00,WUHU216DAVISVP2,2013-02-12 15:50:00,
2013-02-12 10:55:00,31.3,25.4,30.10,West,260,7.0,12.0,78,0.00,,OVC OVC///CB,0.00,WUHU216DAVISVP2,2013-02-12 15:55:00,
2013-02-12 11:00:00,31.4,25.5,30.10,WSW,253,9.0,12.0,78,0.00,,OVC OVC///CB,0.00,WUHU216DAVISVP2,2013-02-12 16:00:00,
2013-02-12 11:05:00,31.5,25.6,30.10,WSW,243,4.0,12.0,78,0.00,,OVC OVC///CB,0.00,WUHU216DAVISVP2,2013-02-12 16:05:00,
2013-02-12 11:10:00,31.7,25.5,30.10,WSW,242,9.0,12.0,77,0.00,,OVC OVC///CB,0.00,WUHU216DAVISVP2,2013-02-12 16:10:00,
2013-02-12 11:16:00,31.5,25.3,30.10,West,280,2.0,11.0,77,0.00,,OVC OVC///CB,0.00,WUHU216DAVISVP2,2013-02-12 16:16:00,
2013-02-12 11:21:00,31.5,25.3,30.10,West,270,4.0,11.0,77,0.00,,OVC OVC///CB,0.00,WUHU216DAVISVP2,2013-02-12 16:21:00,
2013-02-12 11:26:00,31.6,25.4,30.10,WSW,250,4.0,12.0,77,0.00,,OVC OVC///CB,0.00,WUHU216DAVISVP2,2013-02-12 16:26:00,
2013-02-12 11:31:00,31.5,25.6,30.09,WNW,298,2.0,13.0,78,0.00,,OVC OVC///CB,0.00,WUHU216DAVISVP2,2013-02-12 16:31:00,
2013-02-12 11:36:00,31.7,25.5,30.09,West,278,3.0,13.0,77,0.00,,OVC OVC///CB,0.00,WUHU216DAVISVP2,2013-02-12 16:36:00,
2013-02-12 11:41:00,32.0,25.8,30.09,West,276,4.0,13.0,77,0.00,,OVC OVC///CB,0.00,WUHU216DAVISVP2,2013-02-12 16:41:00,
2013-02-12 11:46:00,31.9,25.7,30.09,West,260,3.0,10.0,77,0.00,,OVC OVC///CB,0.00,WUHU216DAVISVP2,2013-02-12 16:46:00,
2013-02-12 11:51:00,31.8,25.6,30.09,WSW,248,4.0,10.0,77,0.00,,OVC OVC///CB,0.00,WUHU216DAVISVP2,2013-02-12 16:51:00,
2013-02-12 11:56:00,32.0,26.1,30.09,NW,307,4.0,10.0,78,0.00,,OVC OVC///CB,0.00,WUHU216DAVISVP2,2013-02-12 16:56:00,
2013-02-12 12:01:00,32.3,26.4,30.08,West,274,3.0,9.0,78,0.00,,OVC OVC///CB,0.00,WUHU216DAVISVP2,2013-02-12 17:01:00,
2013-02-12 12:06:00,32.4,26.4,30.08,SSW,208,6.0,9.0,78,0.00,,OVC OVC///CB,0.00,WUHU216DAVISVP2,2013-02-12 17:06:00,
2013-02-12 12:11:00,32.5,26.5,30.07,WSW,255,5.0,10.0,78,0.00,,OVC OVC///CB,0.00,WUHU216DAVISVP2,2013-02-12 17:11:00,
2013-02-12 12:16:00,32.4,26.4,30.07,WSW,243,5.0,12.0,78,0.00,,OVC OVC///CB,0.00,WUHU216DAVISVP2,2013-02-12 17:16:00,
2013-02-12 12:21:00,32.4,26.4,30.06,WSW,239,5.0,12.0,78,0.00,,OVC OVC///CB,0.00,WUHU216DAVISVP2,2013-02-12 17:21:00,
2013-02-12 12:26:00,32.5,26.5,30.06,West,278,5.0,11.0,78,0.00,,OVC OVC///CB,0.00,WUHU216DAVISVP2,2013-02-12 17:26:00,
2013-02-12 12:31:00,32.6,26.3,30.05,West,281,5.0,11.0,77,0.00,,OVC OVC///CB,0.00,WUHU216DAVISVP2,2013-02-12 17:31:00,
2013-02-12 12:36:00,32.6,26.6,30.05,SW,232,6.0,10.0,78,0.00,,OVC OVC///CB,0.00,WUHU216DAVISVP2,2013-02-12 17:36:00,
2013-02-12 12:41:00,33.0,27.0,30.07,WSW,246,5.0,10.0,78,0.00,,OVC OVC///CB,0.00,WUHU216DAVISVP2,2013-02-12 17:41:00,
2013-02-12 12:46:00,33.2,27.2,30.07,SSW,212,8.0,11.0,78,0.00,,OVC OVC///CB,0.00,WUHU216DAVISVP2,2013-02-12 17:46:00,
2013-02-12 12:51:00,33.2,27.2,30.07,WSW,245,4.0,14.0,78,0.00,,OVC OVC///CB,0.00,WUHU216DAVISVP2,2013-02-12 17:51:00,
2013-02-12 12:56:00,33.2,26.9,30.08,WSW,239,8.0,14.0,77,0.00,,OVC OVC///CB,0.00,WUHU216DAVISVP2,2013-02-12 17:56:00,
2013-02-12 13:01:00,33.3,27.0,30.08,WNW,297,6.0,13.0,77,0.00,,OVC OVC///CB,0.00,WUHU216DAVISVP2,2013-02-12 18:01:00,
2013-02-12 13:06:00,33.3,26.7,30.08,SW,220,6.0,14.0,76,0.00,,OVC OVC///CB,0.00,WUHU216DAVISVP2,2013-02-12 18:06:00,
2013-02-12 13:11:00,33.4,26.8,30.07,WNW,287,4.0,15.0,76,0.00,,OVC OVC///CB,0.00,WUHU216DAVISVP2,2013-02-12 18:11:00,
2013-02-12 13:16:00,33.4,26.8,30.06,WNW,285,2.0,15.0,76,0.00,,OVC OVC///CB,0.00,WUHU216DAVISVP2,2013-02-12 18:16:00,
2013-02-12 13:21:00,33.8,26.9,30.06,NW,304,4.0,15.0,75,0.00,,OVC OVC///CB,0.00,WUHU216DAVISVP2,2013-02-12 18:21:00,
2013-02-12 13:26:00,34.3,27.4,30.05,WSW,250,2.0,11.0,75,0.00,,OVC OVC///CB,0.00,WUHU216DAVISVP2,2013-02-12 18:26:00,
2013-02-12 13:31:00,34.8,27.2,30.04,West,273,7.0,10.0,73,0.00,,OVC OVC///CB,0.00,WUHU216DAVISVP2,2013-02-12 18:31:00,
2013-02-12 13:36:00,34.8,27.5,30.03,WNW,293,2.0,10.0,74,0.00,,OVC OVC///CB,0.00,WUHU216DAVISVP2,2013-02-12 18:36:00,
2013-02-12 13:41:00,34.4,27.1,30.03,WNW,291,2.0,10.0,74,0.00,,OVC OVC///CB,0.00,WUHU216DAVISVP2,2013-02-12 18:41:00,
2013-02-12 13:46:00,34.4,27.1,30.02,WNW,284,2.0,9.0,74,0.00,,OVC OVC///CB,0.00,WUHU216DAVISVP2,2013-02-12 18:46:00,
2013-02-12 13:51:00,34.4,26.8,30.02,West,280,2.0,9.0,73,0.00,,OVC OVC///CB,0.00,WUHU216DAVISVP2,2013-02-12 18:51:00,
2013-02-12 13:56:00,34.7,27.4,30.01,West,269,3.0,9.0,74,0.00,,OVC OVC///CB,0.00,WUHU216DAVISVP2,2013-02-12 18:56:00,
2013-02-12 14:01:00,35.0,27.4,29.99,NW,311,2.0,9.0,73,0.00,,OVC OVC///CB,0.00,WUHU216DAVISVP2,2013-02-12 19:01:00,
2013-02-12 14:06:00,35.4,27.8,29.99,WNW,291,0.0,9.0,73,0.00,,OVC OVC///CB,0.00,WUHU216DAVISVP2,2013-02-12 19:06:00,
2013-02-12 14:11:00,35.8,27.5,29.98,NW,322,2.0,8.0,71,0.00,,OVC OVC///CB,0.00,WUHU216DAVISVP2,2013-02-12 19:11:00,
2013-02-12 14:16:00,36.1,28.1,29.97,WSW,250,4.0,10.0,72,0.00,,OVC OVC///CB,0.00,WUHU216DAVISVP2,2013-02-12 19:16:00,
2013-02-12 14:21:00,36.4,28.1,29.97,WSW,257,6.0,10.0,71,0.00,,OVC OVC///CB,0.00,WUHU216DAVISVP2,2013-02-12 19:21:00,
2013-02-12 14:26:00,36.4,28.1,29.97,NW,310,5.0,9.0,71,0.00,,OVC OVC///CB,0.00,WUHU216DAVISVP2,2013-02-12 19:26:00,
2013-02-12 14:31:00,36.4,27.8,29.97,NW,321,3.0,8.0,70,0.00,,OVC OVC///CB,0.00,WUHU216DAVISVP2,2013-02-12 19:31:00,
2013-02-12 14:36:00,36.8,28.8,29.97,NW,305,3.0,8.0,72,0.00,,OVC OVC///CB,0.00,WUHU216DAVISVP2,2013-02-12 19:36:00,
2013-02-12 14:41:00,36.9,28.2,29.97,WSW,257,5.0,8.0,70,0.00,,OVC OVC///CB,0.00,WUHU216DAVISVP2,2013-02-12 19:41:00,
2013-02-12 14:46:00,37.3,28.3,29.98,SW,215,2.0,10.0,69,0.00,,OVC OVC///CB,0.00,WUHU216DAVISVP2,2013-02-12 19:46:00,
2013-02-12 14:51:00,37.7,29.0,29.99,SW,222,6.0,10.0,70,0.00,,OVC OVC///CB,0.00,WUHU216DAVISVP2,2013-02-12 19:51:00,
2013-02-12 14:56:00,38.1,28.3,29.99,WSW,256,8.0,9.0,67,0.00,,OVC OVC///CB,0.00,WUHU216DAVISVP2,2013-02-12 19:56:00,
2013-02-12 15:02:00,38.3,28.9,30.00,West,278,1.0,9.0,68,0.00,,OVC OVC///CB,0.00,WUHU216DAVISVP2,2013-02-12 20:02:00,
2013-02-12 15:07:00,38.9,29.1,30.00,SW,228,10.0,13.0,67,0.00,,OVC OVC///CB,0.00,WUHU216DAVISVP2,2013-02-12 20:07:00,
2013-02-12 15:12:00,38.9,29.5,30.00,WNW,284,1.0,13.0,68,0.00,,OVC OVC///CB,0.00,WUHU216DAVISVP2,2013-02-12 20:12:00,
2013-02-12 15:17:00,38.6,28.8,30.01,SW,236,7.0,13.0,67,0.00,,OVC OVC///CB,0.00,WUHU216DAVISVP2,2013-02-12 20:17:00,
2013-02-12 15:22:00,38.6,29.2,30.01,WSW,255,8.0,13.0,68,0.00,,OVC OVC///CB,0.00,WUHU216DAVISVP2,2013-02-12 20:22:00,
2013-02-12 15:27:00,38.5,28.7,30.01,SW,221,3.0,16.0,67,0.00,,OVC OVC///CB,0.00,WUHU216DAVISVP2,2013-02-12 20:27:00,
2013-02-12 15:32:00,38.9,29.5,30.01,WNW,283,2.0,16.0,68,0.00,,OVC OVC///CB,0.00,WUHU216DAVISVP2,2013-02-12 20:32:00,
2013-02-12 15:37:00,38.8,28.6,30.02,WSW,245,5.0,15.0,66,0.00,,OVC OVC///CB,0.00,WUHU216DAVISVP2,2013-02-12 20:37:00,
2013-02-12 15:42:00,38.6,29.2,30.03,SW,235,6.0,15.0,68,0.00,,OVC OVC///CB,0.00,WUHU216DAVISVP2,2013-02-12 20:42:00,
2013-02-12 15:47:00,38.7,28.5,30.02,West,277,6.0,13.0,66,0.00,,OVC OVC///CB,0.00,WUHU216DAVISVP2,2013-02-12 20:47:00,
2013-02-12 15:52:00,38.9,28.7,30.02,WSW,255,6.0,13.0,66,0.00,,OVC OVC///CB,0.00,WUHU216DAVISVP2,2013-02-12 20:52:00,
2013-02-12 15:57:00,39.0,29.2,30.02,SW,226,10.0,13.0,67,0.00,,OVC OVC///CB,0.00,WUHU216DAVISVP2,2013-02-12 20:57:00,
2013-02-12 16:02:00,38.9,28.7,30.02,WSW,244,5.0,13.0,66,0.00,,OVC OVC///CB,0.00,WUHU216DAVISVP2,2013-02-12 21:02:00,
2013-02-12 16:07:00,39.4,28.8,30.01,West,264,5.0,11.0,65,0.00,,OVC OVC///CB,0.00,WUHU216DAVISVP2,2013-02-12 21:07:00,
2013-02-12 16:12:00,39.4,28.8,30.01,WSW,255,4.0,10.0,65,0.00,,OVC OVC///CB,0.00,WUHU216DAVISVP2,2013-02-12 21:12:00,
2013-02-12 16:17:00,39.4,28.8,30.01,SW,235,2.0,10.0,65,0.00,,OVC OVC///CB,0.00,WUHU216DAVISVP2,2013-02-12 21:17:00,
2013-02-12 16:22:00,39.6,29.0,30.01,West,259,5.0,12.0,65,0.00,,OVC OVC///CB,0.00,WUHU216DAVISVP2,2013-02-12 21:22:00,
2013-02-12 16:27:00,39.7,29.1,30.01,WSW,241,3.0,12.0,65,0.00,,OVC OVC///CB,0.00,WUHU216DAVISVP2,2013-02-12 21:27:00,
2013-02-12 16:32:00,39.8,29.2,30.01,WSW,256,4.0,12.0,65,0.00,,OVC OVC///CB,0.00,WUHU216DAVISVP2,2013-02-12 21:32:00,
2013-02-12 16:37:00,39.9,29.3,30.01,West,259,6.0,12.0,65,0.00,,OVC OVC///CB,0.00,WUHU216DAVISVP2,2013-02-12 21:37:00,
2013-02-12 16:42:00,39.8,29.2,30.01,WNW,288,6.0,11.0,65,0.00,,OVC OVC///CB,0.00,WUHU216DAVISVP2,2013-02-12 21:42:00,
2013-02-12 16:47:00,39.8,29.2,30.01,SSW,211,1.0,11.0,65,0.00,,OVC OVC///CB,0.00,WUHU216DAVISVP2,2013-02-12 21:47:00,
2013-02-12 16:52:00,39.9,29.3,30.01,West,271,5.0,10.0,65,0.00,,OVC OVC///CB,0.00,WUHU216DAVISVP2,2013-02-12 21:52:00,
2013-02-12 16:57:00,39.8,29.2,30.01,WSW,242,4.0,11.0,65,0.00,,OVC OVC///CB,0.00,WUHU216DAVISVP2,2013-02-12 21:57:00,
2013-02-12 17:02:00,39.8,29.2,30.01,WSW,252,2.0,11.0,65,0.00,,OVC OVC///CB,0.00,WUHU216DAVISVP2,2013-02-12 22:02:00,
2013-02-12 17:07:00,39.7,29.1,30.01,WSW,248,5.0,11.0,65,0.00,,OVC OVC///CB,0.00,WUHU216DAVISVP2,2013-02-12 22:07:00,
2013-02-12 17:12:00,39.6,29.0,30.01,SW,235,2.0,11.0,65,0.00,,OVC OVC///CB,0.00,WUHU216DAVISVP2,2013-02-12 22:12:00,
2013-02-12 17:17:00,39.6,29.4,30.01,West,279,1.0,10.0,66,0.00,,OVC OVC///CB,0.00,WUHU216DAVISVP2,2013-02-12 22:17:00,
2013-02-12 17:22:00,39.7,29.5,30.01,WSW,243,4.0,9.0,66,0.00,,OVC OVC///CB,0.00,WUHU216DAVISVP2,2013-02-12 22:22:00,
2013-02-12 17:27:00,39.7,29.1,30.01,West,260,4.0,9.0,65,0.00,,OVC OVC///CB,0.00,WUHU216DAVISVP2,2013-02-12 22:27:00,
2013-02-12 17:32:00,39.8,29.2,30.01,WNW,283,0.0,9.0,65,0.00,,OVC OVC///CB,0.00,WUHU216DAVISVP2,2013-02-12 22:32:00,
2013-02-12 17:39:00,39.7,29.1,30.01,WSW,251,1.0,9.0,65,0.00,,OVC OVC///CB,0.00,WUHU216DAVISVP2,2013-02-12 22:39:00,
2013-02-12 17:44:00,39.5,29.3,30.01,WSW,242,3.0,9.0,66,0.00,,OVC OVC///CB,0.00,WUHU216DAVISVP2,2013-02-12 22:44:00,
2013-02-12 17:49:00,39.2,29.0,30.01,SW,233,3.0,6.0,66,0.00,,OVC OVC///CB,0.00,WUHU216DAVISVP2,2013-02-12 22:49:00,
2013-02-12 17:54:00,38.9,28.7,30.01,WSW,257,1.0,6.0,66,0.00,,OVC OVC///CB,0.00,WUHU216DAVISVP2,2013-02-12 22:54:00,
2013-02-12 17:59:00,38.7,28.9,30.00,WSW,255,1.0,6.0,67,0.00,,OVC OVC///CB,0.00,WUHU216DAVISVP2,2013-02-12 22:59:00,
2013-02-12 18:04:00,38.6,28.8,30.01,WSW,252,1.0,6.0,67,0.00,,OVC OVC///CB,0.00,WUHU216DAVISVP2,2013-02-12 23:04:00,
2013-02-12 18:10:00,38.4,29.0,30.00,WSW,250,0.0,6.0,68,0.00,,OVC OVC///CB,0.00,WUHU216DAVISVP2,2013-02-12 23:10:00,
2013-02-12 18:15:00,38.1,28.7,30.00,WSW,245,2.0,6.0,68,0.00,,OVC OVC///CB,0.00,WUHU216DAVISVP2,2013-02-12 23:15:00,
2013-02-12 18:20:00,37.9,28.9,30.00,WSW,251,1.0,3.0,69,0.00,,OVC OVC///CB,0.00,WUHU216DAVISVP2,2013-02-12 23:20:00,
2013-02-12 18:25:00,37.8,28.8,30.00,WSW,238,0.0,3.0,69,0.00,,OVC OVC///CB,0.00,WUHU216DAVISVP2,2013-02-12 23:25:00,
2013-02-12 18:30:00,37.6,28.6,30.00,SW,229,0.0,3.0,69,0.00,,OVC OVC///CB,0.00,WUHU216DAVISVP2,2013-02-12 23:30:00,
2013-02-12 18:35:00,37.3,28.6,30.00,West,266,1.0,2.0,70,0.00,,OVC OVC///CB,0.00,WUHU216DAVISVP2,2013-02-12 23:35:00,
2013-02-12 18:40:00,37.0,28.7,29.99,WSW,238,0.0,2.0,71,0.00,,OVC OVC///CB,0.00,WUHU216DAVISVP2,2013-02-12 23:40:00,
2013-02-12 18:45:00,36.9,28.6,29.99,SW,235,1.0,1.0,71,0.00,,OVC OVC///CB,0.00,WUHU216DAVISVP2,2013-02-12 23:45:00,
2013-02-12 18:50:00,36.6,28.3,29.99,West,259,0.0,1.0,71,0.00,,OVC OVC///CB,0.00,WUHU216DAVISVP2,2013-02-12 23:50:00,
2013-02-12 18:55:00,36.5,28.5,29.99,West,271,0.0,1.0,72,0.00,,OVC OVC///CB,0.00,WUHU216DAVISVP2,2013-02-12 23:55:00,
2013-02-12 19:00:00,36.5,28.5,29.99,West,276,0.0,2.0,72,0.00,,OVC OVC///CB,0.00,WUHU216DAVISVP2,2013-02-13 00:00:00,
2013-02-12 19:05:00,36.5,28.5,29.99,West,266,0.0,2.0,72,0.00,,OVC OVC///CB,0.00,WUHU216DAVISVP2,2013-02-13 00:05:00,
2013-02-12 19:10:00,36.5,28.5,29.99,West,259,0.0,2.0,72,0.00,,OVC OVC///CB,0.00,WUHU216DAVISVP2,2013-02-13 00:10:00,
2013-02-12 19:15:00,36.3,28.3,29.98,West,260,0.0,2.0,72,0.00,,OVC OVC///CB,0.00,WUHU216DAVISVP2,2013-02-13 00:15:00,
2013-02-12 19:20:00,36.2,28.2,29.98,West,259,0.0,2.0,72,0.00,,OVC OVC///CB,0.00,WUHU216DAVISVP2,2013-02-13 00:20:00,
2013-02-12 19:25:00,36.1,28.1,29.98,West,268,0.0,1.0,72,0.00,,OVC OVC///CB,0.00,WUHU216DAVISVP2,2013-02-13 00:25:00,
2013-02-12 19:30:00,35.9,27.9,29.98,West,268,0.0,1.0,72,0.00,,OVC OVC///CB,0.00,WUHU216DAVISVP2,2013-02-13 00:30:00,
2013-02-12 19:35:00,35.7,28.1,29.98,West,269,0.0,1.0,73,0.00,,OVC OVC///CB,0.00,WUHU216DAVISVP2,2013-02-13 00:35:00,
2013-02-12 19:40:00,35.5,27.9,29.98,West,269,0.0,1.0,73,0.00,,OVC OVC///CB,0.00,WUHU216DAVISVP2,2013-02-13 00:40:00,
2013-02-12 19:45:00,35.3,28.0,29.98,West,269,0.0,0.0,74,0.00,,OVC OVC///CB,0.00,WUHU216DAVISVP2,2013-02-13 00:45:00,
2013-02-12 19:50:00,34.9,27.6,29.99,West,268,0.0,0.0,74,0.00,,OVC OVC///CB,0.00,WUHU216DAVISVP2,2013-02-13 00:50:00,
2013-02-12 19:55:00,34.7,27.8,29.99,West,269,0.0,0.0,75,0.00,,OVC OVC///CB,0.00,WUHU216DAVISVP2,2013-02-13 00:55:00,
2013-02-12 20:00:00,34.0,27.4,29.98,West,269,0.0,0.0,76,0.00,,OVC OVC///CB,0.00,WUHU216DAVISVP2,2013-02-13 01:00:00,
2013-02-12 20:05:00,33.4,27.4,29.98,West,269,0.0,0.0,78,0.00,,OVC OVC///CB,0.00,WUHU216DAVISVP2,2013-02-13 01:05:00,
2013-02-12 20:10:00,33.0,27.0,29.97,West,268,0.0,0.0,78,0.00,,OVC OVC///CB,0.00,WUHU216DAVISVP2,2013-02-13 01:10:00,
2013-02-12 20:15:00,32.6,26.9,29.97,West,269,0.0,0.0,79,0.00,,OVC OVC///CB,0.00,WUHU216DAVISVP2,2013-02-13 01:15:00,
2013-02-12 20:20:00,32.1,26.8,29.97,SSW,198,0.0,0.0,80,0.00,,OVC OVC///CB,0.00,WUHU216DAVISVP2,2013-02-13 01:20:00,
2013-02-12 20:25:00,31.7,26.9,29.97,SSW,199,0.0,0.0,82,0.00,,OVC OVC///CB,0.00,WUHU216DAVISVP2,2013-02-13 01:25:00,
2013-02-12 20:30:00,31.7,26.9,29.97,SSW,198,0.0,0.0,82,0.00,,OVC OVC///CB,0.00,WUHU216DAVISVP2,2013-02-13 01:30:00,
2013-02-12 20:35:00,31.6,26.8,29.96,SSW,198,0.0,0.0,82,0.00,,OVC OVC///CB,0.00,WUHU216DAVISVP2,2013-02-13 01:35:00,
2013-02-12 20:40:00,31.6,27.1,29.96,SSW,198,0.0,0.0,83,0.00,,OVC OVC///CB,0.00,WUHU216DAVISVP2,2013-02-13 01:40:00,
2013-02-12 20:45:00,31.3,26.8,29.96,SSW,198,0.0,0.0,83,0.00,,OVC OVC///CB,0.00,WUHU216DAVISVP2,2013-02-13 01:45:00,
2013-02-12 20:50:00,31.0,26.5,29.96,SSW,198,0.0,0.0,83,0.00,,OVC OVC///CB,0.00,WUHU216DAVISVP2,2013-02-13 01:50:00,
2013-02-12 20:55:00,30.5,26.1,29.96,SSW,198,0.0,0.0,83,0.00,,OVC OVC///CB,0.00,WUHU216DAVISVP2,2013-02-13 01:55:00,
2013-02-12 21:00:00,30.1,26.2,29.96,SSW,198,0.0,0.0,85,0.00,,OVC OVC///CB,0.00,WUHU216DAVISVP2,2013-02-13 02:00:00,
2013-02-12 21:05:00,29.8,25.9,29.96,SSW,198,0.0,0.0,85,0.00,,OVC OVC///CB,0.00,WUHU216DAVISVP2,2013-02-13 02:05:00,
2013-02-12 21:10:00,29.5,25.9,29.96,SSW,199,0.0,0.0,86,0.00,,OVC OVC///CB,0.00,WUHU216DAVISVP2,2013-02-13 02:10:00,
2013-02-12 21:15:00,29.4,26.1,29.96,SSW,199,0.0,0.0,87,0.00,,OVC OVC///CB,0.00,WUHU216DAVISVP2,2013-02-13 02:15:00,
2013-02-12 21:20:00,29.3,26.0,29.95,SSW,198,0.0,0.0,87,0.00,,OVC OVC///CB,0.00,WUHU216DAVISVP2,2013-02-13 02:20:00,
2013-02-12 21:25:00,28.9,25.6,29.96,SSW,198,0.0,0.0,87,0.00,,OVC OVC///CB,0.00,WUHU216DAVISVP2,2013-02-13 02:25:00,
2013-02-12 21:30:00,28.5,25.5,29.96,SSW,198,0.0,0.0,88,0.00,,OVC OVC///CB,0.00,WUHU216DAVISVP2,2013-02-13 02:30:00,
2013-02-12 21:35:00,28.6,25.8,29.96,SSW,198,0.0,0.0,89,0.00,,OVC OVC///CB,0.00,WUHU216DAVISVP2,2013-02-13 02:35:00,
2013-02-12 21:40:00,28.7,25.9,29.96,SSW,198,0.0,0.0,89,0.00,,OVC OVC///CB,0.00,WUHU216DAVISVP2,2013-02-13 02:40:00,
2013-02-12 21:45:00,28.7,25.9,29.96,SSW,198,0.0,0.0,89,0.00,,OVC OVC///CB,0.00,WUHU216DAVISVP2,2013-02-13 02:45:00,
2013-02-12 21:50:00,28.6,25.8,29.96,SSW,198,0.0,0.0,89,0.00,,OVC OVC///CB,0.00,WUHU216DAVISVP2,2013-02-13 02:50:00,
2013-02-12 21:55:00,28.3,25.5,29.96,SSW,198,0.0,0.0,89,0.00,,OVC OVC///CB,0.00,WUHU216DAVISVP2,2013-02-13 02:55:00,
2013-02-12 22:00:00,28.0,25.5,29.96,North,352,1.0,2.0,90,0.00,,OVC OVC///CB,0.00,WUHU216DAVISVP2,2013-02-13 03:00:00,
2013-02-12 22:05:00,28.0,25.5,29.96,North,349,0.0,2.0,90,0.00,,OVC OVC///CB,0.00,WUHU216DAVISVP2,2013-02-13 03:05:00,
2013-02-12 22:10:00,28.0,25.5,29.95,North,349,0.0,2.0,90,0.00,,OVC OVC///CB,0.00,WUHU216DAVISVP2,2013-02-13 03:10:00,
2013-02-12 22:15:00,28.0,25.5,29.95,North,349,0.0,2.0,90,0.00,,OVC OVC///CB,0.00,WUHU216DAVISVP2,2013-02-13 03:15:00,
2013-02-12 22:20:00,28.1,25.6,29.95,North,349,0.0,1.0,90,0.00,,OVC OVC///CB,0.00,WUHU216DAVISVP2,2013-02-13 03:20:00,
2013-02-12 22:25:00,28.1,25.6,29.95,North,349,0.0,0.0,90,0.00,,OVC OVC///CB,0.00,WUHU216DAVISVP2,2013-02-13 03:25:00,
2013-02-12 22:30:00,28.0,25.5,29.95,NNW,348,0.0,0.0,90,0.00,,OVC OVC///CB,0.00,WUHU216DAVISVP2,2013-02-13 03:30:00,
2013-02-12 22:35:00,27.7,25.2,29.95,North,349,0.0,0.0,90,0.00,,OVC OVC///CB,0.00,WUHU216DAVISVP2,2013-02-13 03:35:00,
2013-02-12 22:40:00,27.7,25.5,29.95,North,349,0.0,0.0,91,0.00,,OVC OVC///CB,0.00,WUHU216DAVISVP2,2013-02-13 03:40:00,
2013-02-12 22:45:00,27.6,25.1,29.95,North,349,0.0,0.0,90,0.00,,OVC OVC///CB,0.00,WUHU216DAVISVP2,2013-02-13 03:45:00,
2013-02-12 22:50:00,27.7,25.5,29.95,North,349,0.0,0.0,91,0.00,,OVC OVC///CB,0.00,WUHU216DAVISVP2,2013-02-13 03:50:00,
2013-02-12 22:55:00,27.7,25.5,29.95,North,349,0.0,0.0,91,0.00,,OVC OVC///CB,0.00,WUHU216DAVISVP2,2013-02-13 03:55:00,
2013-02-12 23:00:00,27.7,25.5,29.94,North,349,0.0,0.0,91,0.00,,OVC OVC///CB,0.00,WUHU216DAVISVP2,2013-02-13 04:00:00,
2013-02-12 23:05:00,27.6,25.4,29.94,North,349,0.0,0.0,91,0.00,,OVC OVC///CB,0.00,WUHU216DAVISVP2,2013-02-13 04:05:00,
2013-02-12 23:10:00,27.3,25.1,29.94,North,349,0.0,0.0,91,0.00,,OVC OVC///CB,0.00,WUHU216DAVISVP2,2013-02-13 04:10:00,
2013-02-12 23:15:00,27.0,24.8,29.94,North,349,0.0,0.0,91,0.00,,OVC OVC///CB,0.00,WUHU216DAVISVP2,2013-02-13 04:15:00,
2013-02-12 23:20:00,26.9,24.9,29.94,North,349,0.0,0.0,92,0.00,,OVC OVC///CB,0.00,WUHU216DAVISVP2,2013-02-13 04:20:00,
2013-02-12 23:25:00,26.9,24.9,29.94,North,349,0.0,0.0,92,0.00,,OVC OVC///CB,0.00,WUHU216DAVISVP2,2013-02-13 04:25:00,
2013-02-12 23:30:00,26.9,25.2,29.94,North,349,0.0,0.0,93,0.00,,OVC OVC///CB,0.00,WUHU216DAVISVP2,2013-02-13 04:30:00,
2013-02-12 23:35:00,27.0,25.3,29.94,North,349,0.0,0.0,93,0.00,,OVC OVC///CB,0.00,WUHU216DAVISVP2,2013-02-13 04:35:00,
2013-02-12 23:40:00,27.1,25.4,29.94,North,349,0.0,0.0,93,0.00,,OVC OVC///CB,0.00,WUHU216DAVISVP2,2013-02-13 04:40:00,
2013-02-12 23:45:00,27.3,25.6,29.94,North,349,0.0,0.0,93,0.00,,OVC OVC///CB,0.00,WUHU216DAVISVP2,2013-02-13 04:45:00,
2013-02-12 23:50:00,27.3,25.3,29.94,NNW,348,0.0,0.0,92,0.00,,OVC OVC///CB,0.00,WUHU216DAVISVP2,2013-02-13 04:50:00,
2013-02-12 23:55:00,27.1,25.1,29.94,NNW,348,0.0,0.0,92,0.00,,OVC OVC///CB,0.00,WUHU216DAVISVP2,2013-02-13 04:55:00,